DW6574 Wellesley MA US current weather conditions

sailwx.info

Wind from 064 at 1 knots gusting 6

Air temperature 25.6° C
Dewpoint 23.0° C

Last reported at 2020-Jul-10 23:00 UTC.
Time now 2020-Jul-11 00:04 UTC

Location: N 42°15' W 071°22'.
View on Google Maps.

See reports from other nearby stations

  
Tides and Currents Weather Stations Pressure Air Temp Water Temp Dewpoint Dewpoint Depression Visibility Wind Speed Wind Dir Waves Ship Positions
date/time (UTC)wind fromknots sea level pressurealtimeterstation pressurevisibilityair tempwater tempwave heightnotes
2020-Jul-10 23:00 064 1 gusting 6 25.6
2020-Jul-10 22:45 139 25.6
2020-Jul-10 22:30 240 2 gusting 7 25.0
2020-Jul-10 22:15 145 1 gusting 3 25.0
2020-Jul-10 22:00 250 2 gusting 9 25.6
2020-Jul-10 21:45 160 1 gusting 4 25.6
2020-Jul-10 21:30 326 25.6
2020-Jul-10 21:15 212 0 gusting 5 26.1
2020-Jul-10 21:00 131 1 gusting 6 26.1
2020-Jul-10 20:45 271 26.1
2020-Jul-10 20:30 236 0 gusting 3 26.1
2020-Jul-10 20:16 075 1 gusting 5 26.7
2020-Jul-10 20:02 058 2 gusting 6 27.8
2020-Jul-10 19:47 019 1 gusting 8 28.3
2020-Jul-10 19:32 125 2 gusting 6 27.8
2020-Jul-10 19:16 001 1 gusting 6 28.3
2020-Jul-10 18:47 214 1 gusting 6 28.9
2020-Jul-10 18:16 316 0 gusting 3 27.2
2020-Jul-10 18:01 201 28.9
2020-Jul-10 17:46 090 0 gusting 5 28.3
2020-Jul-10 17:31 039 1 gusting 4 28.9
2020-Jul-10 17:18 354 1 gusting 4 29.4
2020-Jul-10 17:01 145 0 gusting 5 28.9
2020-Jul-10 16:46 229 1 gusting 4 28.3
2020-Jul-10 16:30 166 0 gusting 5 28.3
2020-Jul-10 16:16 081 0 gusting 4 27.8
2020-Jul-10 16:01 111 2 gusting 7 27.8
2020-Jul-10 15:46 221 0 gusting 6 27.8
2020-Jul-10 15:31 024 27.8
2020-Jul-10 15:15 150 0 gusting 4 27.2
2020-Jul-10 15:00 133 0 gusting 4 27.2
2020-Jul-10 14:46 108 0 gusting 4 27.2
2020-Jul-10 14:30 040 0 gusting 2 26.7
2020-Jul-10 14:15 115 0 gusting 3 26.1
2020-Jul-10 14:00 131 26.1
2020-Jul-10 13:45 360 0 gusting 4 26.1
2020-Jul-10 13:30 124 25.6
2020-Jul-10 13:15 069 25.0
2020-Jul-10 13:00 113 0 gusting 1 23.9
2020-Jul-10 12:45 142 23.3
2020-Jul-10 12:30 235 1 gusting 2 22.8
2020-Jul-10 12:01 243 22.2
2020-Jul-10 11:47 217 0 gusting 2 22.2
2020-Jul-10 11:31 100 0 gusting 3 21.7
2020-Jul-10 11:16 105 21.7
2020-Jul-10 11:02 106 21.7
2020-Jul-10 10:46 106 21.7
2020-Jul-10 10:31 132 21.7
2020-Jul-10 10:18 150 0 gusting 1 21.7
2020-Jul-10 10:01 112 21.1
2020-Jul-10 09:46 141 21.1
2020-Jul-10 09:31 120 21.1
2020-Jul-10 09:16 155 21.1
2020-Jul-10 09:01 195 21.1
2020-Jul-10 08:46 172 20.6
2020-Jul-10 08:32 109 20.6
2020-Jul-10 08:16 109 20.0
2020-Jul-10 08:01 109 20.0
2020-Jul-10 07:46 109 0 gusting 0 20.0
2020-Jul-10 07:31 118 0 gusting 1 20.0
2020-Jul-10 07:15 117 0 gusting 1 20.0
2020-Jul-10 07:01 160 20.0
2020-Jul-10 06:46 164 20.0
2020-Jul-10 06:30 161 20.6
2020-Jul-10 06:16 123 20.6
2020-Jul-10 06:01 127 20.6
2020-Jul-10 05:45 130 21.1
2020-Jul-10 05:30 142 21.1
2020-Jul-10 05:16 116 21.1
2020-Jul-10 05:00 119 21.1
2020-Jul-10 04:45 128 21.1
2020-Jul-10 04:31 107 21.7
2020-Jul-10 04:15 130 21.7
2020-Jul-10 04:00 134 21.7
2020-Jul-10 03:45 134 22.2
2020-Jul-10 03:30 149 22.2
2020-Jul-10 03:15 152 22.8
2020-Jul-10 03:00 139 22.8
2020-Jul-10 02:45 108 23.3
2020-Jul-10 02:30 106 23.3
2020-Jul-10 02:15 112 23.3
2020-Jul-10 02:00 130 0 gusting 0 23.9
2020-Jul-10 01:46 150 23.9
2020-Jul-10 01:30 214 24.4
2020-Jul-10 01:16 126 24.4
2020-Jul-10 01:00 129 25.0
2020-Jul-10 00:45 102 25.6
2020-Jul-10 00:30 143 26.1
2020-Jul-10 00:15 146 0 gusting 4 26.7
2020-Jul-10 00:00 239 26.7
2020-Jul-09 23:45 190 1 gusting 5 27.2
2020-Jul-09 23:30 165 1 gusting 7 27.8
2020-Jul-09 23:15 201 2 gusting 6 28.3
2020-Jul-09 23:00 131 2 gusting 5 28.3
2020-Jul-09 22:45 200 1 gusting 7 28.9
2020-Jul-09 22:30 118 2 gusting 8 29.4
2020-Jul-09 22:15 191 1 gusting 6 29.4
2020-Jul-09 22:00 131 2 gusting 6 30.0
2020-Jul-09 21:45 162 2 gusting 4 30.6
2020-Jul-09 21:30 133 2 gusting 7 31.1
2020-Jul-09 21:15 239 1 gusting 6 31.7
2020-Jul-09 21:00 240 0 gusting 6 32.8
2020-Jul-09 20:46 106 0 gusting 3 32.2
2020-Jul-09 20:31 256 0 gusting 1 31.1
2020-Jul-09 20:16 174 31.7
2020-Jul-09 20:02 091 0 gusting 2 30.6
2020-Jul-09 19:46 281 31.1
2020-Jul-09 19:31 122 0 gusting 2 32.2
2020-Jul-09 19:16 266 31.7
2020-Jul-09 19:01 111 0 gusting 3 32.2
2020-Jul-09 18:45 131 2 gusting 6 32.8
2020-Jul-09 18:31 120 0 gusting 6 32.2
2020-Jul-09 18:17 141 2 gusting 6 32.2
2020-Jul-09 18:01 266 1 gusting 5 32.8
2020-Jul-09 17:45 355 31.7
2020-Jul-09 17:31 359 31.7
2020-Jul-09 17:16 163 3 gusting 5 31.1
2020-Jul-09 17:01 041 31.1
2020-Jul-09 16:46 162 2 gusting 5 31.7
2020-Jul-09 16:31 283 31.7
2020-Jul-09 16:16 079 0 gusting 1 31.1
2020-Jul-09 16:01 194 0 gusting 4 31.1
2020-Jul-09 15:46 150 0 gusting 5 30.0
2020-Jul-09 15:32 240 1 gusting 4 30.6
2020-Jul-09 15:15 136 0 gusting 4 30.0
2020-Jul-09 15:00 049 0 gusting 3 29.4
2020-Jul-09 14:45 014 29.4
2020-Jul-09 14:30 127 2 gusting 6 28.3
2020-Jul-09 14:16 206 0 gusting 4 28.9
2020-Jul-09 14:01 245 0 gusting 2 28.3
2020-Jul-09 13:45 026 27.8
2020-Jul-09 13:30 221 27.8
2020-Jul-09 13:15 098 0 gusting 2 27.2
2020-Jul-09 13:00 283 0 gusting 4 26.7
2020-Jul-09 12:45 271 26.1
2020-Jul-09 12:30 145 1 gusting 4 26.1
2020-Jul-09 12:15 278 25.6
2020-Jul-09 12:00 105 25.6
2020-Jul-09 11:45 112 25.0
2020-Jul-09 11:30 098 24.4
2020-Jul-09 11:17 142 23.9
2020-Jul-09 11:01 097 0 gusting 3 23.3
2020-Jul-09 10:47 102 22.8
2020-Jul-09 10:32 134 22.2
2020-Jul-09 10:17 134 21.1
2020-Jul-09 10:01 113 20.6
2020-Jul-09 09:46 124 20.6
2020-Jul-09 09:30 124 20.6
2020-Jul-09 09:15 123 20.6
2020-Jul-09 09:02 124 0 gusting 0 20.6
2020-Jul-09 08:46 117 21.1
2020-Jul-09 08:31 113 0 gusting 1 21.1
2020-Jul-09 08:16 110 0 gusting 1 20.6
2020-Jul-09 08:01 118 0 gusting 0 20.6
2020-Jul-09 07:46 110 20.6
2020-Jul-09 07:31 110 20.6
2020-Jul-09 07:18 109 20.6
2020-Jul-09 07:01 108 20.6
2020-Jul-09 06:45 109 20.6
2020-Jul-09 06:30 109 20.6
2020-Jul-09 06:15 107 20.6
2020-Jul-09 06:01 107 20.6
2020-Jul-09 05:45 107 21.1
2020-Jul-09 05:30 107 21.1
2020-Jul-09 05:15 107 21.1
2020-Jul-09 05:00 106 21.1
2020-Jul-09 04:45 105 21.1
2020-Jul-09 04:30 108 21.7
2020-Jul-09 04:16 103 21.7
2020-Jul-09 04:00 113 22.2
2020-Jul-09 03:45 128 22.2
2020-Jul-09 03:30 127 0 gusting 3 22.8
2020-Jul-09 03:15 187 0 gusting 3 22.8
2020-Jul-09 03:00 119 0 gusting 2 22.8
2020-Jul-09 02:45 092 0 gusting 4 23.3
2020-Jul-09 02:30 224 0 gusting 3 23.3
2020-Jul-09 02:15 108 1 gusting 4 23.3
2020-Jul-09 02:00 112 0 gusting 2 23.3
2020-Jul-09 01:45 129 0 gusting 1 23.3
2020-Jul-09 01:30 096 23.9
2020-Jul-09 01:15 143 0 gusting 2 23.9
2020-Jul-09 01:00 200 0 gusting 2 24.4
2020-Jul-09 00:45 250 0 gusting 5 24.4
2020-Jul-09 00:30 107 0 gusting 5 25.0
2020-Jul-09 00:15 119 2 gusting 6 25.0
2020-Jul-09 00:00 173 0 gusting 2 25.0